Theta_e
282 282 282 282 282 282 281 281 281 280 279 279 279 278 278 277 277 277 277 276 276 276 276 275 275 276 277 277 278 278 279 280 281 282 284 286 291 291 291 291 292 292 292 293 293 293 293 294 294 295 297 300 301 303 304 307 310 310 309 309 308 309
281 281 281 281 281 281 281 280 280 279 279 279 278 278 277 276 276 275 274 275 275 274 274 275 275 276 277 277 276 277 278 280 282 283 283 285 286 288 291 291 291 291 291 292 292 292 292 292 293 294 296 298 300 302 303 305 309 310 309 308 308 309
281 281 281 281 281 281 280 279 279 278 278 277 277 276 276 275 275 275 274 274 273 274 274 273 273 274 276 276 276 276 277 278 281 283 283 284 284 285 286 290 291 291 291 291 291 291 291 291 291 293 294 296 298 300 301 303 307 309 309 307 307 308
281 281 281 281 280 280 279 279 278 278 277 277 276 276 275 275 274 274 274 274 274 273 273 273 273 273 274 274 275 276 277 278 279 280 281 281 283 285 285 287 291 290 290 290 291 291 291 291 292 292 293 295 296 298 300 302 304 308 308 308 307 306
280 280 280 279 279 279 278 278 278 278 277 276 276 275 274 274 274 274 273 273 273 272 273 273 272 273 273 273 274 275 276 277 278 279 279 280 282 283 284 285 288 290 290 290 290 291 291 291 291 291 293 294 295 297 299 301 302 306 307 307 307 306
280 279 279 279 279 278 278 278 278 277 277 276 276 275 275 274 274 273 273 272 272 272 272 272 272 272 273 273 274 274 275 276 277 278 278 279 280 280 281 283 284 287 289 289 289 290 290 290 290 291 291 293 294 296 298 300 301 304 308 307 307 307
279 278 278 278 278 278 278 278 277 277 276 276 275 275 274 273 273 273 272 272 271 271 271 271 272 271 272 272 273 273 274 275 276 277 277 278 278 279 279 280 282 284 287 289 289 290 290 290 290 291 291 292 293 294 297 299 301 303 307 308 307 304
278 278 278 278 277 277 277 277 277 276 276 275 275 275 274 273 273 273 272 271 271 271 271 271 271 271 271 271 272 273 273 274 275 275 276 276 277 278 278 279 280 282 283 286 288 289 289 290 290 290 290 291 292 293 295 299 301 303 306 308 307 306
277 277 277 277 277 277 276 276 276 275 275 275 275 274 274 273 273 271 271 271 270 270 270 270 270 270 270 271 271 272 272 273 273 274 274 276 276 276 277 278 279 280 281 283 287 288 289 289 290 290 290 290 291 292 294 297 300 303 306 308 308 307
277 276 276 276 276 276 276 275 275 274 274 274 274 273 273 272 271 271 271 270 270 270 270 270 270 270 270 270 271 271 271 272 272 273 273 275 275 275 276 276 277 278 280 282 286 288 288 289 289 289 290 290 290 291 293 297 299 302 305 307 308 308
276 275 275 275 275 275 274 274 274 274 273 273 273 273 273 272 271 271 270 269 269 269 269 270 270 270 270 270 270 269 270 270 271 271 272 273 274 275 275 276 277 278 278 280 284 286 287 288 289 290 290 289 290 291 292 296 299 301 304 307 307 308
275 275 275 274 274 274 273 273 273 272 272 272 273 272 272 272 271 269 269 269 269 269 269 269 269 269 269 269 268 268 269 269 270 270 271 272 273 274 275 276 277 277 278 279 281 285 287 288 289 289 290 291 290 290 291 293 297 301 304 305 306 306
274 274 274 273 273 273 272 272 272 271 271 271 272 272 271 271 270 269 269 268 268 269 268 268 268 268 268 268 268 268 268 268 269 269 270 271 273 274 275 276 276 277 278 279 280 281 284 286 288 290 291 292 292 291 291 292 295 299 303 304 305 304
273 273 273 272 272 272 271 271 271 270 270 271 271 271 271 270 269 268 268 268 268 268 268 267 267 267 267 267 267 267 268 268 268 269 270 271 272 274 275 275 276 277 278 279 280 282 283 285 288 290 291 291 292 291 290 291 293 296 301 303 305 305
273 272 272 272 271 271 271 271 270 269 269 270 270 270 269 269 268 268 268 268 267 267 267 267 266 266 266 266 266 267 267 267 268 268 269 270 272 274 275 275 276 277 278 278 279 280 283 285 288 290 291 291 291 291 291 290 292 294 297 302 304 305
272 272 272 271 271 271 271 270 269 269 269 269 269 269 268 268 267 267 267 267 267 267 267 266 266 265 265 265 266 266 266 266 267 268 268 269 271 273 275 276 276 277 277 278 278 280 282 284 287 289 290 291 291 291 291 290 291 294 297 301 303 304
271 271 270 270 270 270 269 268 268 268 268 268 268 268 267 267 267 266 266 266 267 267 266 265 264 264 264 264 265 265 265 265 266 266 267 268 270 272 274 276 276 277 278 278 278 279 281 283 287 289 290 290 291 291 291 290 292 294 297 301 303 303
270 270 269 270 269 268 268 267 268 267 267 267 267 267 267 266 266 266 266 266 266 265 265 264 264 263 264 264 264 264 264 265 265 266 267 268 269 271 275 277 278 278 278 280 280 280 281 282 286 288 289 290 291 291 290 289 290 293 296 299 301 302
270 269 269 268 268 267 267 267 267 266 265 265 266 266 266 266 265 265 265 264 264 264 264 263 263 263 263 263 263 263 264 264 265 266 268 268 269 270 273 276 278 279 280 280 282 282 282 283 285 287 289 290 291 290 289 289 290 293 296 299 300 301
269 269 268 267 266 266 266 266 265 265 265 265 265 265 265 265 264 264 264 263 263 263 263 263 263 262 262 263 263 263 264 265 266 267 268 268 268 270 274 277 278 279 280 281 282 283 283 284 286 288 289 290 291 290 289 289 291 292 294 297 299 300
268 267 266 266 264 265 265 264 264 264 264 264 264 264 264 263 263 263 263 262 263 263 263 263 262 262 262 262 263 264 264 265 266 267 268 268 269 270 272 276 279 280 281 281 282 284 285 285 286 288 290 290 291 291 290 291 292 293 294 296 297 297
266 265 264 264 264 264 264 263 263 263 263 263 264 263 263 263 263 263 263 262 262 262 262 262 262 262 262 262 263 264 265 266 267 267 267 268 269 270 274 276 277 278 279 281 283 285 286 286 287 288 291 291 292 293 291 292 292 293 294 296 297 296
265 264 264 264 264 263 263 263 262 262 262 263 262 262 262 263 263 262 262 262 261 261 261 262 262 261 262 263 264 266 267 267 267 268 268 269 270 271 273 275 277 278 279 280 281 286 287 288 287 288 290 292 292 293 293 292 293 295 295 295 294 297
263 263 263 263 263 263 262 262 261 261 262 262 261 262 262 262 262 262 261 260 260 260 261 261 262 263 263 265 267 267 268 269 270 269 270 270 270 272 274 277 278 279 281 284 286 286 286 287 287 288 290 291 292 293 294 293 293 295 295 294 295 296
262 262 262 262 262 262 262 261 260 261 261 261 261 262 262 261 261 260 260 259 259 260 260 261 262 263 266 267 268 269 270 271 272 272 272 271 272 273 276 277 278 280 281 283 285 286 287 287 288 289 289 291 292 293 294 295 295 296 295 295 294 295
262 261 261 261 262 261 261 260 260 260 260 260 261 262 261 260 260 259 259 259 259 260 260 262 263 266 267 267 268 269 270 272 273 274 275 276 276 277 279 280 282 282 282 283 285 286 287 288 289 289 290 290 292 294 295 295 296 296 295 296 296 297
260 260 260 260 260 261 261 261 259 259 258 260 261 260 259 259 258 258 257 258 259 259 260 263 265 266 266 266 267 267 268 270 273 274 277 278 280 280 281 282 282 282 282 283 284 286 287 288 289 290 291 291 292 294 295 295 296 296 296 294 296 295
259 259 258 259 260 260 260 260 260 258 258 259 259 259 259 258 257 257 257 257 258 259 261 263 264 264 265 265 266 266 267 268 270 273 275 278 280 281 282 282 283 283 284 284 286 286 288 289 290 291 291 291 291 292 294 295 295 295 295 295 295 294
258 257 257 257 259 260 260 259 259 259 259 258 259 258 258 257 256 256 257 257 258 260 262 262 262 263 264 264 265 266 267 268 269 270 273 275 277 279 281 283 283 284 285 285 286 287 288 289 290 291 291 292 292 292 292 294 294 294 294 294 294 293
257 257 257 257 258 259 259 258 258 258 258 258 258 257 256 256 256 256 256 257 259 260 261 261 264 263 263 263 264 264 265 266 268 269 270 272 274 276 278 280 282 283 284 285 286 287 287 288 290 290 291 291 292 293 293 293 294 294 295 295 294 294
256 256 256 257 258 258 258 257 257 257 257 257 257 256 255 255 255 256 256 258 259 260 261 261 261 261 261 262 263 264 265 265 266 267 269 271 273 274 277 279 282 283 284 285 285 285 285 286 288 289 291 290 292 291 293 293 293 295 295 294 295 292
256 256 256 257 257 257 256 256 256 256 257 256 256 256 255 255 255 255 256 258 259 259 260 260 260 260 261 262 262 263 263 268 270 269 268 268 273 275 278 279 277 279 282 285 285 286 285 285 287 290 291 292 292 293 294 294 294 295 294 294 294 293
256 256 255 256 257 256 255 255 255 255 256 256 255 255 254 254 255 255 256 257 258 259 259 259 259 260 260 261 261 261 261 262 263 268 270 271 272 273 275 277 278 280 281 281 283 286 287 287 288 290 292 292 292 293 293 294 294 294 293 294 292 292
255 255 255 256 256 255 255 254 255 255 255 255 255 255 254 254 255 255 255 257 258 259 259 259 259 259 259 260 260 261 261 260 260 261 266 269 270 271 273 274 275 277 278 279 280 282 284 286 287 288 291 291 292 292 292 293 293 293 294 294 294 292
255 255 255 255 254 254 254 253 254 254 254 254 254 254 254 254 255 255 255 257 258 258 259 259 259 259 259 259 259 259 260 259 259 258 258 261 267 269 270 271 273 274 275 276 278 280 282 284 286 287 291 291 291 292 292 292 293 293 294 294 292 292
254 254 254 254 254 253 253 253 253 254 254 254 254 253 253 254 255 255 256 257 258 258 258 258 258 258 259 259 259 258 259 259 259 258 258 258 258 260 263 267 269 271 273 273 275 277 279 280 281 282 282 284 288 291 292 292 291 294 294 293 292 291
253 253 254 254 253 253 252 252 253 253 253 253 253 253 253 254 255 255 257 260 259 258 258 258 258 258 258 259 258 258 258 258 258 258 258 257 257 257 257 258 260 266 270 268 269 273 276 277 278 278 279 280 281 286 292 292 290 290 291 292 291 291
253 253 253 253 252 252 251 251 253 253 253 253 253 252 253 254 254 255 255 256 258 258 258 258 258 258 258 258 258 258 258 258 258 257 257 257 257 257 256 257 258 261 265 268 268 271 271 273 274 275 275 275 276 277 281 282 286 288 288 288 288 288
Wind_Speed
11 11 11 11 11 10 10 11 11 12 13 13 13 16 16 16 16 18 17 16 15 16 18 21 21 19 17 17 19 20 19 19 16 16 15 16 19 11 8 7 7 7 6 5 6 5 5 4 4 6 7 9 10 10 11 13 13 13 14 14 15 16
10 10 11 13 13 11 9 10 10 16 15 13 17 17 16 17 17 16 17 16 15 19 18 19 20 22 18 17 18 19 20 20 18 16 15 15 14 17 14 9 8 7 7 6 6 5 5 4 3 4 7 8 9 9 9 13 14 16 16 15 16 13
10 10 11 12 12 10 9 9 13 14 12 15 15 18 20 19 17 17 16 16 17 17 21 20 19 22 20 19 18 18 18 20 20 15 13 13 14 13 16 15 12 8 7 7 6 6 5 5 3 3 6 8 10 9 9 12 15 15 16 16 16 17
10 12 14 13 13 13 13 13 12 14 14 13 15 16 15 16 18 19 22 16 14 20 18 19 19 19 19 21 20 19 18 18 18 17 17 16 14 12 13 16 15 12 7 7 7 6 6 5 4 2 3 8 10 10 8 9 15 15 15 15 19 18
10 13 15 15 15 14 13 12 13 14 15 15 14 15 17 16 15 13 15 18 21 19 18 20 17 19 20 20 18 19 18 16 17 17 18 17 14 13 11 14 16 17 10 8 8 7 5 5 4 3 3 6 10 12 10 10 13 17 15 17 19 20
10 13 14 15 14 14 15 14 15 15 13 15 17 20 18 15 13 16 17 21 20 19 21 18 19 20 20 19 16 19 19 17 16 16 16 15 15 16 14 13 16 17 14 10 9 7 5 4 3 4 3 5 8 12 13 11 12 16 15 16 16 19
14 14 14 14 14 14 15 15 15 15 17 16 16 17 16 15 15 17 21 19 19 22 18 20 19 19 20 19 18 20 20 19 18 15 17 16 15 14 14 14 14 16 16 14 11 9 6 4 3 4 5 6 7 11 13 12 12 16 18 17 17 17
14 15 16 14 14 14 15 16 16 17 18 18 14 15 16 17 16 19 20 18 22 20 19 19 21 20 20 20 19 19 18 19 18 19 17 17 18 17 14 13 13 13 16 16 13 11 9 6 5 5 5 7 8 10 12 12 13 16 19 17 17 18
17 16 16 15 15 14 14 14 16 17 18 20 19 17 17 16 17 17 16 21 21 18 20 22 20 19 18 18 19 18 18 18 19 19 20 18 18 18 16 14 15 15 15 16 15 14 12 10 7 6 6 7 8 11 13 13 13 16 18 17 18 19
16 16 16 15 15 15 15 15 15 17 17 18 17 18 17 15 16 17 22 21 18 21 24 19 18 20 20 17 18 18 18 19 19 20 20 19 20 18 17 16 15 15 14 15 14 13 11 10 10 8 7 7 8 10 13 13 13 15 18 18 19 20
16 17 17 16 16 17 18 18 18 17 18 17 17 17 18 18 17 22 22 16 20 23 18 17 21 16 19 21 19 19 19 18 18 19 20 19 17 15 16 12 14 17 17 16 16 14 12 12 11 8 7 7 8 9 13 14 13 15 17 19 19 19
16 16 16 16 17 18 19 19 19 19 19 18 19 17 17 15 22 22 17 22 23 15 18 24 17 21 19 19 19 19 19 18 18 18 18 18 16 17 16 15 14 16 17 17 17 15 13 11 10 10 14 12 10 10 12 14 14 14 16 17 18 19
16 16 16 17 18 18 17 18 18 19 20 20 19 18 19 16 23 22 23 21 13 20 20 17 22 17 18 19 21 19 18 19 17 17 18 18 18 17 17 14 15 17 15 17 15 16 15 13 11 16 16 16 18 13 12 13 14 14 15 16 18 17
17 17 17 18 18 19 17 18 20 20 21 19 19 19 20 23 21 22 21 19 22 15 20 22 17 18 19 18 18 19 18 17 17 18 18 17 18 17 15 17 15 14 15 15 15 14 14 13 15 20 18 17 18 17 13 12 13 13 13 13 17 17
16 17 17 17 17 18 19 18 19 19 20 23 22 19 22 18 19 21 23 21 19 20 17 14 19 20 20 18 18 17 17 17 17 17 17 17 17 16 16 16 15 15 14 15 17 16 15 13 15 19 19 18 19 20 18 12 13 13 13 13 15 18
14 15 15 16 17 17 17 16 16 18 19 16 18 22 21 21 20 20 19 22 22 21 22 21 20 19 19 18 18 18 18 18 17 16 17 17 17 17 17 15 16 15 14 15 16 16 15 15 15 20 20 20 20 21 19 14 14 14 14 14 15 16
16 16 17 16 17 16 16 17 17 19 19 18 23 21 18 22 24 22 22 20 15 16 17 19 22 22 21 19 18 18 18 18 18 17 16 16 16 16 16 14 15 14 15 16 16 16 16 14 19 20 20 21 21 22 20 14 14 13 13 14 16 17
15 16 17 16 16 17 15 16 17 18 20 19 15 15 17 17 16 18 18 22 22 18 18 19 21 20 22 21 19 17 18 18 17 17 15 16 15 15 15 14 13 13 14 15 15 16 17 15 21 23 22 23 22 23 15 13 14 14 13 13 14 16
12 15 16 17 17 16 16 17 18 19 20 20 19 19 20 18 19 19 19 19 19 21 20 20 21 22 22 21 20 19 17 17 17 15 13 14 15 15 16 15 12 13 13 15 15 16 15 15 18 23 24 24 24 19 13 13 13 13 13 13 13 14
11 12 13 17 17 15 15 16 18 19 18 18 19 20 20 18 19 20 19 20 20 20 23 24 23 22 22 20 19 20 19 16 14 14 13 14 14 16 15 13 12 12 12 14 15 15 15 14 16 22 23 24 24 20 14 13 12 12 12 12 12 11
12 14 15 16 17 16 15 17 18 16 18 18 17 17 18 19 20 21 23 22 21 20 18 18 20 21 22 22 21 18 18 17 15 13 12 13 13 14 15 16 13 12 12 12 14 20 20 16 16 20 22 23 22 18 13 12 12 12 12 11 11 10
10 12 15 17 17 16 16 15 16 18 16 17 19 19 19 20 22 22 21 22 20 18 18 18 20 21 20 21 20 18 16 14 13 13 12 13 12 13 13 13 13 15 14 15 16 16 18 16 12 12 18 19 21 23 15 11 12 13 13 12 12 11
9 11 13 14 15 16 15 15 16 17 18 18 17 18 20 23 21 22 23 21 20 19 18 18 18 21 21 19 18 16 15 12 12 12 11 12 12 13 14 15 15 15 16 16 18 14 11 10 11 13 20 21 22 23 21 13 14 13 12 13 13 13
11 11 13 12 13 14 14 15 16 17 15 16 17 19 20 20 21 21 21 21 21 20 19 19 19 18 17 16 17 16 13 13 12 12 12 11 12 15 16 16 13 14 15 12 10 9 11 13 18 14 19 23 23 23 26 16 13 14 12 13 13 13
13 12 13 14 14 14 14 16 17 18 18 17 20 21 20 20 20 21 21 21 22 20 19 18 19 17 13 14 16 17 15 13 11 12 12 13 14 15 17 15 15 14 14 13 10 9 11 13 13 20 18 22 23 24 24 23 16 19 15 15 15 15
12 13 12 13 12 13 13 14 17 18 20 21 18 20 20 21 19 20 21 20 20 19 16 17 16 14 16 17 17 18 17 14 12 11 10 11 12 13 13 12 11 11 12 12 11 10 10 11 12 16 22 19 22 22 22 20 23 21 16 16 15 14
15 16 15 13 14 13 12 12 15 20 21 20 20 21 21 21 21 21 21 19 19 18 16 15 15 16 15 16 15 16 16 17 15 12 10 10 11 11 11 11 10 11 11 11 11 10 9 11 12 12 15 21 19 19 18 20 24 25 25 17 13 13
11 12 16 17 14 13 11 11 12 17 20 20 20 20 20 20 22 22 23 21 18 17 17 19 18 15 16 17 14 14 14 15 15 14 13 12 12 12 12 11 11 11 11 11 9 9 10 11 11 11 10 11 13 13 17 21 25 26 26 23 16 19
12 14 15 18 16 13 13 13 12 13 15 18 19 19 20 21 21 21 20 21 16 15 17 19 16 18 16 15 14 12 13 13 13 14 14 14 13 13 13 12 11 11 11 10 9 9 10 10 10 9 8 8 8 8 10 15 18 23 24 17 14 17
10 13 15 16 16 15 15 14 15 15 16 16 18 19 20 19 19 20 20 20 15 14 16 17 23 21 14 14 14 15 15 13 13 13 14 14 15 15 15 14 12 12 10 8 7 7 8 9 8 7 7 6 7 7 7 10 12 14 13 13 12 13
10 11 13 14 14 15 15 15 15 15 17 17 17 19 20 19 21 19 19 17 15 14 16 16 16 16 16 15 15 14 14 15 15 15 14 15 13 15 16 14 12 11 9 9 9 7 8 8 8 7 7 7 8 8 8 10 10 12 14 16 18 14
8 11 13 13 13 14 15 16 15 14 15 16 16 18 18 19 18 18 17 16 15 15 16 16 15 17 16 16 17 18 16 17 21 17 14 15 23 29 27 22 13 13 10 10 8 6 8 8 9 16 10 10 11 13 14 13 16 16 14 18 24 18
9 9 11 12 12 13 14 15 15 15 15 16 16 16 17 17 14 14 14 15 14 17 17 16 16 16 16 16 16 16 17 18 18 22 25 25 27 28 29 28 28 28 26 19 10 8 11 14 17 20 8 8 10 11 13 14 19 17 18 22 18 15
9 10 12 12 12 13 13 14 14 14 15 16 16 16 15 16 14 13 14 14 14 16 16 15 16 16 17 16 16 16 16 17 18 20 24 29 29 30 29 28 30 31 29 28 24 18 9 10 12 19 13 11 10 9 14 16 19 21 23 24 22 14
8 9 9 10 12 13 13 13 13 14 15 16 16 16 16 16 15 16 16 14 16 16 17 16 15 15 15 16 17 17 16 16 16 18 20 24 30 29 26 28 31 33 30 29 29 30 27 24 19 18 11 6 7 10 13 17 19 21 24 22 14 11
8 8 9 10 12 12 12 13 14 15 16 15 15 15 15 15 15 14 12 15 17 16 15 15 15 15 15 15 15 16 16 15 15 15 17 17 19 23 27 31 32 32 31 30 30 30 29 28 25 28 28 24 15 3 11 12 13 19 20 16 10 10
8 7 9 12 12 11 12 13 13 14 14 15 16 16 15 14 15 13 15 21 18 12 13 14 15 14 14 15 15 15 15 15 16 15 15 14 16 16 16 16 18 23 30 24 21 27 29 28 27 29 29 28 26 19 8 11 7 8 9 8 7 7
6 7 9 9 9 10 11 12 13 14 14 15 16 15 14 14 14 13 11 11 14 13 13 13 14 13 13 14 13 13 13 13 14 14 13 14 14 14 15 16 14 11 16 28 28 33 28 29 29 30 32 31 31 27 21 10 6 4 2 3 4 2
Wind_Direction
321 316 313 314 314 313 316 313 311 311 307 306 312 315 313 313 316 315 315 320 319 316 315 312 308 302 301 303 306 306 303 300 299 300 300 306 308 286 252 236 235 236 242 237 245 239 253 254 261 276 281 276 270 269 270 264 230 204 195 194 189 185
317 316 316 317 317 315 313 309 316 317 310 318 324 318 317 316 316 317 315 313 313 313 311 309 308 304 300 302 305 304 305 304 300 299 301 306 313 317 294 260 240 228 231 231 231 235 243 247 238 259 284 283 273 270 273 268 248 207 194 194 187 185
316 317 320 315 312 310 310 316 320 312 312 317 318 324 320 317 318 318 313 312 309 310 310 308 309 306 307 306 302 300 303 304 303 303 304 305 306 312 314 294 268 234 225 226 224 229 236 246 251 252 283 289 281 270 265 274 264 228 198 185 189 182
316 324 321 317 317 318 320 320 317 316 313 316 321 319 315 317 319 321 319 315 308 308 307 307 305 303 304 306 306 301 300 300 302 308 309 306 303 307 309 308 290 273 236 230 224 224 229 237 254 246 269 286 285 274 262 266 265 242 205 192 185 182
322 323 320 318 318 316 316 316 317 317 316 318 315 315 315 317 315 314 313 311 312 308 309 307 304 302 299 300 300 298 298 298 302 306 304 303 303 303 307 309 306 289 265 243 233 221 219 225 246 253 263 286 288 282 271 259 260 251 213 193 187 184
321 321 319 318 319 321 319 317 316 313 319 323 317 314 316 322 320 314 314 313 306 307 307 305 305 301 302 300 298 298 299 299 298 298 301 303 305 303 303 304 303 302 295 276 260 241 220 222 231 262 265 281 287 286 276 265 259 254 225 195 190 186
323 320 317 319 320 320 319 318 315 317 319 317 312 310 315 319 318 318 316 310 308 308 306 306 304 303 299 298 297 297 298 300 300 299 298 301 299 297 298 297 296 296 296 286 270 266 254 234 241 265 282 284 284 284 279 268 259 253 234 201 184 183
320 320 319 319 321 321 320 318 317 317 315 310 312 314 317 318 317 317 315 312 311 306 303 303 304 301 300 297 296 295 296 296 296 300 299 298 297 297 298 294 294 291 292 294 288 279 273 265 251 260 274 287 290 287 280 270 256 251 236 205 186 179
321 319 318 319 317 318 316 317 316 314 312 311 315 318 317 314 315 312 313 312 308 304 304 306 303 301 297 297 295 295 295 295 296 295 295 296 293 294 297 299 294 290 289 287 286 279 274 272 266 267 273 281 286 285 282 273 259 249 234 209 187 182
318 318 318 317 317 318 318 316 314 312 311 312 316 319 319 316 313 311 314 312 305 305 306 303 298 298 296 294 292 294 294 294 293 293 293 292 291 290 290 294 293 289 286 284 281 277 275 271 270 266 271 275 279 284 280 273 264 253 235 211 191 184
318 318 319 319 320 322 321 320 318 317 314 316 316 316 316 312 308 312 307 303 305 306 302 302 301 293 295 292 290 289 290 289 288 288 290 289 287 285 284 284 284 283 281 278 275 275 269 265 263 264 266 274 278 282 286 281 268 254 235 211 193 184
315 316 319 321 323 323 322 320 319 318 317 318 318 317 317 315 307 302 302 307 304 296 305 307 300 298 293 292 288 288 287 285 284 282 281 280 278 278 278 279 275 274 275 275 271 267 266 263 262 262 262 262 268 277 283 282 276 263 238 210 191 184
315 318 321 323 323 322 322 319 318 318 317 318 319 318 316 316 312 305 303 300 297 304 299 302 302 293 294 293 291 289 285 283 282 280 278 277 274 272 276 272 268 273 272 271 266 262 260 259 259 259 260 263 267 272 278 281 277 270 247 214 190 183
320 321 324 324 323 323 324 323 320 318 316 317 319 315 313 309 303 300 295 297 298 298 307 304 300 297 296 295 291 288 287 283 281 277 274 273 271 266 264 268 266 265 268 268 265 257 254 255 253 255 257 259 263 268 272 277 276 270 259 224 194 182
318 320 323 324 323 322 322 322 317 315 315 318 315 315 312 304 303 304 304 301 303 302 302 297 299 298 298 298 296 291 286 282 279 278 278 276 275 269 260 261 262 261 261 263 265 262 257 253 248 249 252 254 259 265 269 275 274 266 262 235 204 185
316 317 319 318 316 316 315 313 311 309 311 306 311 314 310 309 303 302 297 301 300 304 306 307 303 296 294 293 292 290 288 285 280 279 280 280 279 274 267 259 257 260 259 260 262 262 260 253 247 247 248 251 254 259 264 270 269 266 259 242 210 187
317 318 320 321 318 317 317 316 318 317 313 316 315 308 303 306 307 308 308 304 298 298 300 301 300 295 293 292 289 288 284 281 279 276 275 274 273 272 265 257 256 255 255 256 257 257 256 252 246 246 246 248 250 255 262 265 268 263 256 241 214 190
320 320 320 318 316 317 318 316 319 318 315 310 300 300 303 302 298 294 296 304 307 308 307 305 301 298 295 293 290 285 283 279 274 273 270 271 269 271 270 260 257 258 258 259 255 251 251 251 246 245 245 246 248 252 256 261 262 260 251 236 216 191
316 318 317 315 316 317 318 319 320 315 312 310 308 304 298 296 298 308 312 310 306 304 302 303 302 297 294 293 291 288 285 282 278 274 270 269 268 265 266 267 258 258 260 261 256 250 250 249 245 242 242 242 244 245 248 253 256 252 246 231 213 190
314 313 314 312 312 314 317 319 317 313 307 304 304 309 312 309 306 305 303 305 305 307 306 301 298 296 294 291 287 286 282 276 275 273 271 269 272 275 273 257 253 252 252 256 259 253 252 250 244 240 237 236 237 235 240 244 247 245 236 227 211 195
321 317 314 311 310 317 319 316 313 311 308 307 306 303 303 309 311 314 313 311 311 307 304 301 300 299 296 291 284 279 278 274 271 268 266 264 266 266 266 266 265 266 263 261 260 257 250 247 244 237 235 233 231 231 235 240 241 237 227 212 205 195
317 316 313 315 314 318 318 318 315 312 309 310 312 313 315 314 315 311 305 304 305 305 303 300 297 291 285 282 282 278 270 265 267 262 260 259 259 263 268 270 268 264 262 260 258 251 240 238 237 236 238 237 236 235 236 235 233 227 216 203 195 189
315 308 308 306 313 318 318 320 318 316 315 314 319 315 312 312 311 311 311 307 306 305 300 293 287 286 284 278 272 269 267 263 256 256 252 255 258 257 253 251 256 260 262 259 256 245 235 240 245 246 242 241 238 236 235 231 226 219 203 197 191 188
314 310 310 311 314 317 318 320 318 315 315 316 313 315 317 315 315 311 307 308 305 303 302 297 290 283 279 278 281 280 267 258 248 242 243 245 248 254 258 260 259 261 264 263 242 238 248 247 244 244 243 241 239 238 232 228 221 209 193 190 192 189
318 319 317 317 322 322 324 323 319 320 321 319 317 319 318 317 314 314 313 309 305 301 296 291 287 290 294 292 287 286 277 273 262 251 243 243 246 251 255 252 252 257 264 268 261 248 245 248 247 240 241 240 236 235 234 226 220 201 191 188 190 190
312 313 317 318 322 322 324 325 322 324 323 320 322 321 319 317 317 316 311 305 302 298 298 293 294 307 316 313 314 311 303 290 276 270 267 257 255 258 255 252 252 256 261 261 262 253 247 249 248 240 235 236 232 232 233 227 214 195 190 190 190 188
320 319 318 322 324 326 326 328 326 324 324 325 327 325 324 321 318 317 313 309 303 299 297 302 315 321 317 319 316 316 317 313 308 295 287 279 272 259 251 256 258 256 259 263 260 259 255 251 249 239 233 228 227 231 232 225 206 193 187 187 190 177
316 318 319 321 327 327 329 331 332 328 325 326 326 325 324 321 320 317 315 313 307 300 309 319 322 323 323 321 317 313 314 314 313 310 304 303 294 285 276 272 268 261 259 258 254 261 260 257 250 238 229 223 226 230 231 217 199 189 186 184 177 179
326 326 326 322 328 332 332 332 333 327 325 327 326 325 324 323 318 316 317 318 302 307 323 326 327 327 324 322 319 313 318 315 313 312 312 310 308 304 295 286 278 275 268 257 261 261 268 266 254 238 225 223 216 220 223 207 194 184 181 180 174 171
324 323 326 325 326 332 332 334 333 333 331 330 330 326 324 322 321 320 317 310 305 318 327 327 327 327 324 327 327 327 325 322 319 318 317 316 316 314 305 291 287 287 281 280 271 279 286 288 271 236 226 228 208 204 201 194 184 177 174 170 167 165
322 321 322 321 325 329 331 332 333 334 336 336 332 331 327 324 322 320 317 314 320 323 330 330 329 329 327 324 325 323 323 323 326 324 318 317 314 316 321 308 288 277 273 276 280 287 283 292 289 248 222 215 204 188 195 179 181 175 174 171 160 154
320 324 326 324 328 330 331 332 334 335 337 335 333 332 330 324 321 324 325 325 324 326 332 333 331 330 329 329 330 331 326 326 325 324 324 323 327 330 337 358 355 350 323 282 267 271 292 295 302 287 226 206 209 187 187 186 171 177 166 158 153 148
329 327 326 326 330 331 331 331 333 335 338 336 334 332 330 327 321 323 324 326 328 331 334 331 331 332 330 332 332 332 331 330 329 331 333 336 338 340 342 352 0 4 5 6 339 295 287 294 309 302 255 199 196 184 167 171 162 159 153 150 147 149
337 338 331 330 332 331 331 330 333 337 337 336 334 334 330 329 329 327 323 318 323 331 334 332 330 328 332 334 336 336 339 339 334 330 334 339 342 344 349 356 4 6 7 6 5 4 328 317 313 315 274 213 191 162 148 148 150 150 153 156 152 154
333 330 328 330 332 330 332 331 333 337 337 336 335 334 331 331 332 331 326 323 332 333 334 335 333 334 333 338 341 342 342 344 344 339 335 336 337 343 353 360 4 7 6 6 7 11 17 15 3 328 295 242 192 154 147 145 148 149 151 149 154 157
328 328 331 334 333 331 331 333 333 338 336 335 334 333 331 330 330 329 322 333 332 334 335 336 334 333 336 340 345 342 342 343 341 342 339 339 339 346 349 353 356 1 4 5 7 15 20 18 24 30 29 25 16 105 142 142 148 151 151 151 155 158
326 331 339 337 333 332 334 333 334 335 334 334 335 333 333 334 334 331 324 326 332 333 337 336 333 335 338 344 347 344 344 344 347 343 344 346 351 350 343 336 336 350 0 8 5 12 19 21 24 33 32 26 22 18 89 105 121 148 158 156 151 160
328 341 339 336 335 335 333 333 336 335 335 335 337 335 337 338 339 336 324 323 329 339 343 338 336 334 343 348 346 344 340 347 344 344 347 353 352 350 341 343 333 331 342 7 11 11 11 17 24 35 35 33 30 28 39 44 44 66 94 98 73 84